| time (UTC) | temp F | wind direction | speed MPH | gust MPH | rain 1hr in | rain 24hr in | rain mn in | humidity % | barometer mb |
| 20260904045100 | 85 | 138 | 4.0 | 5.0 | 0.00 | 0.00 | 0.00 | 14 | 1009.5 |
| 20260904044559 | 85 | 145 | 0.0 | 5.0 | 0.00 | 0.00 | 0.00 | 14 | 1009.5 |
| 20260904043559 | 85 | 164 | 3.0 | 7.0 | 0.00 | 0.00 | 0.00 | 14 | 1009.4 |
| 20260904043100 | 85 | 199 | 1.0 | 7.0 | 0.00 | 0.00 | 0.00 | 14 | 1009.6 |
| 20260904042559 | 85 | 133 | 1.0 | 6.0 | 0.00 | 0.00 | 0.00 | 14 | 1009.4 |
| 20260904042059 | 85 | 171 | 5.0 | 6.0 | 0.00 | 0.00 | 0.00 | 14 | 1009.5 |
| 20260904041559 | 86 | 202 | 4.0 | 11.0 | 0.00 | 0.00 | 0.00 | 13 | 1009.5 |
| 20260904041100 | 86 | 179 | 4.0 | 11.0 | 0.00 | 0.00 | 0.00 | 13 | 1009.6 |
| 20260904035600 | 86 | 178 | 6.0 | 10.0 | 0.00 | 0.00 | 0.00 | 13 | 1009.1 |
| 20260904035059 | 86 | 190 | 6.0 | 12.0 | 0.00 | 0.00 | 0.00 | 13 | 1009.0 |
| 20260904034559 | 86 | 190 | 9.0 | 12.0 | 0.00 | 0.00 | 0.00 | 13 | 1009.0 |
| 20260904034059 | 86 | 189 | 12.0 | 13.0 | 0.00 | 0.00 | 0.00 | 13 | 1009.0 |
| 20260904033559 | 86 | 176 | 4.0 | 13.0 | 0.00 | 0.00 | 0.00 | 13 | 1008.9 |
| 20260904033100 | 86 | 202 | 9.0 | 10.0 | 0.00 | 0.00 | 0.00 | 13 | 1008.7 |
| 20260904032559 | 86 | 181 | 3.0 | 8.0 | 0.00 | 0.00 | 0.00 | 13 | 1008.8 |
| 20260904032100 | 86 | 169 | 4.0 | 8.0 | 0.00 | 0.00 | 0.00 | 13 | 1008.7 |
| 20260904031559 | 86 | 202 | 2.0 | 8.0 | 0.00 | 0.00 | 0.00 | 12 | 1008.8 |
| 20260904030559 | 87 | 178 | 2.0 | 8.0 | 0.00 | 0.00 | 0.00 | 12 | 1008.6 |
| 20260904030059 | 87 | 171 | 5.0 | 8.0 | 0.00 | 0.00 | 0.00 | 12 | 1008.7 |
| 20260904025559 | 87 | 202 | 6.0 | 10.0 | 0.00 | 0.00 | 0.00 | 12 | 1008.5 |
| 20260904025100 | 87 | 184 | 2.0 | 10.0 | 0.00 | 0.00 | 0.00 | 12 | 1008.5 |
| 20260904024559 | 87 | 191 | 5.0 | 8.0 | 0.00 | 0.00 | 0.00 | 12 | 1008.4 |
| 20260904024100 | 88 | 173 | 3.0 | 7.0 | 0.00 | 0.00 | 0.00 | 12 | 1008.5 |
| 20260904023559 | 88 | 192 | 4.0 | 7.0 | 0.00 | 0.00 | 0.00 | 11 | 1008.6 |
| 20260904023100 | 88 | 360 | 7.0 | 8.0 | 0.00 | 0.00 | 0.00 | 11 | 1008.4 |
| 20260904022600 | 88 | 360 | 2.0 | 9.0 | 0.00 | 0.00 | 0.00 | 11 | 1008.4 |
| 20260904021600 | 89 | 201 | 6.0 | 14.0 | 0.00 | 0.00 | 0.00 | 11 | 1008.4 |
| 20260904021100 | 89 | 360 | 6.0 | 17.0 | 0.00 | 0.00 | 0.00 | 11 | 1008.6 |
| 20260904020559 | 89 | 360 | 10.0 | 17.0 | 0.00 | 0.00 | 0.00 | 11 | 1008.5 |
| 20260904020100 | 89 | 360 | 4.0 | 16.0 | 0.00 | 0.00 | 0.00 | 11 | 1008.4 |
| 20260904015559 | 89 | 360 | 9.0 | 16.0 | 0.00 | 0.00 | 0.00 | 11 | 1008.2 |
| 20260904015100 | 90 | 360 | 9.0 | 13.0 | 0.00 | 0.00 | 0.00 | 11 | 1008.5 |
| 20260904014559 | 90 | 190 | 8.0 | 12.0 | 0.00 | 0.00 | 0.00 | 11 | 1008.3 |
| 20260904014059 | 90 | 168 | 5.0 | 14.0 | 0.00 | 0.00 | 0.00 | 11 | 1008.4 |
| 20260904013559 | 90 | 198 | 7.0 | 14.0 | 0.00 | 0.00 | 0.00 | 11 | 1008.4 |
| 20260904013100 | 91 | 200 | 7.0 | 14.0 | 0.00 | 0.00 | 0.00 | 11 | 1008.5 |
| 20260904012559 | 91 | 188 | 6.0 | 11.0 | 0.00 | 0.00 | 0.00 | 11 | 1008.5 |
| 20260904012100 | 91 | 175 | 4.0 | 11.0 | 0.00 | 0.00 | 0.00 | 11 | 1008.5 |
| 20260904011559 | 91 | 162 | 7.0 | 15.0 | 0.00 | 0.00 | 0.00 | 11 | 1008.4 |
| 20260904011100 | 91 | 200 | 5.0 | 15.0 | 0.00 | 0.00 | 0.00 | 10 | 1008.5 |
| 20260904010600 | 91 | 182 | 13.0 | 14.0 | 0.00 | 0.00 | 0.00 | 10 | 1008.5 |
| 20260904010059 | 92 | 168 | 10.0 | 17.0 | 0.00 | 0.00 | 0.00 | 10 | 1008.6 |
| 20260904005559 | 92 | 181 | 10.0 | 17.0 | 0.00 | 0.00 | 0.00 | 10 | 1008.6 |
| 20260904005100 | 92 | 210 | 3.0 | 12.0 | 0.00 | 0.00 | 0.00 | 11 | 1008.6 |
| 20260904004559 | 92 | 199 | 7.0 | 17.0 | 0.00 | 0.00 | 0.00 | 10 | 1008.7 |
| 20260904003559 | 92 | 196 | 5.0 | 15.0 | 0.00 | 0.00 | 0.00 | 10 | 1008.7 |
| 20260904002100 | 93 | 194 | 8.0 | 17.0 | 0.00 | 0.00 | 0.00 | 10 | 1008.7 |
| 20260904001559 | 93 | 211 | 6.0 | 17.0 | 0.00 | 0.00 | 0.00 | 10 | 1008.8 |
| 20260904001059 | 94 | 171 | 2.0 | 11.0 | 0.00 | 0.00 | 0.00 | 10 | 1009.0 |
| 20260904000059 | 94 | 175 | 4.0 | 13.0 | 0.00 | 0.00 | 0.00 | 11 | 1009.1 |
| 20260903235059 | 94 | 192 | 2.0 | 15.0 | 0.00 | 0.00 | 0.00 | 11 | 1009.1 |
| 20260903234059 | 94 | 165 | 6.0 | 17.0 | 0.00 | 0.00 | 0.00 | 10 | 1009.3 |
| 20260903233559 | 94 | 143 | 4.0 | 13.0 | 0.00 | 0.00 | 0.00 | 10 | 1009.3 |
| 20260903233059 | 94 | 166 | 4.0 | 14.0 | 0.00 | 0.00 | 0.00 | 10 | 1009.3 |
| 20260903232559 | 94 | 183 | 10.0 | 17.0 | 0.00 | 0.00 | 0.00 | 10 | 1009.3 |
| 20260903232059 | 94 | 198 | 5.0 | 17.0 | 0.00 | 0.00 | 0.00 | 10 | 1009.5 |
| 20260903231559 | 94 | 190 | 17.0 | 17.0 | 0.00 | 0.00 | 0.00 | 10 | 1009.4 |
| 20260903231100 | 94 | 115 | 5.0 | 18.0 | 0.00 | 0.00 | 0.00 | 10 | 1009.5 |
| 20260903230559 | 95 | 184 | 9.0 | 18.0 | 0.00 | 0.00 | 0.00 | 10 | 1009.7 |
| 20260903225559 | 94 | 167 | 8.0 | 13.0 | 0.00 | 0.00 | 0.00 | 10 | 1009.8 |
| 20260903224559 | 94 | 177 | 6.0 | 16.0 | 0.00 | 0.00 | 0.00 | 10 | 1009.9 |
| 20260903224059 | 94 | 171 | 9.0 | 16.0 | 0.00 | 0.00 | 0.00 | 10 | 1009.9 |
| 20260903223559 | 94 | 120 | 12.0 | 16.0 | 0.00 | 0.00 | 0.00 | 10 | 1010.0 |
| 20260903223059 | 94 | 180 | 3.0 | 16.0 | 0.00 | 0.00 | 0.00 | 10 | 1010.0 |
| 20260903222559 | 94 | 153 | 9.0 | 18.0 | 0.00 | 0.00 | 0.00 | 10 | 1010.1 |
| 20260903222059 | 94 | 151 | 6.0 | 18.0 | 0.00 | 0.00 | 0.00 | 10 | 1010.0 |
| 20260903221559 | 94 | 107 | 3.0 | 18.0 | 0.00 | 0.00 | 0.00 | 10 | 1010.2 |
| 20260903221059 | 94 | 162 | 5.0 | 16.0 | 0.00 | 0.00 | 0.00 | 11 | 1010.3 |
| 20260903220559 | 94 | 150 | 4.0 | 16.0 | 0.00 | 0.00 | 0.00 | 10 | 1010.3 |
| 20260903220100 | 94 | 158 | 6.0 | 18.0 | 0.00 | 0.00 | 0.00 | 10 | 1010.5 |
| 20260903215059 | 94 | 203 | 7.0 | 21.0 | 0.00 | 0.00 | 0.00 | 11 | 1010.8 |
| 20260903214559 | 94 | 178 | 7.0 | 16.0 | 0.00 | 0.00 | 0.00 | 11 | 1010.7 |
| 20260903214059 | 94 | 161 | 5.0 | 19.0 | 0.00 | 0.00 | 0.00 | 11 | 1010.7 |
| 20260903213059 | 94 | 180 | 7.0 | 19.0 | 0.00 | 0.00 | 0.00 | 11 | 1010.8 |
| 20260903212559 | 93 | 173 | 7.0 | 19.0 | 0.00 | 0.00 | 0.00 | 11 | 1010.7 |
| 20260903212059 | 94 | 128 | 6.0 | 15.0 | 0.00 | 0.00 | 0.00 | 11 | 1010.9 |
| 20260903211059 | 94 | 180 | 9.0 | 16.0 | 0.00 | 0.00 | 0.00 | 11 | 1010.8 |
| 20260903210559 | 94 | 200 | 9.0 | 16.0 | 0.00 | 0.00 | 0.00 | 11 | 1010.8 |
| 20260903210059 | 94 | 100 | 8.0 | 14.0 | 0.00 | 0.00 | 0.00 | 11 | 1010.9 |
| 20260903205559 | 94 | 158 | 7.0 | 16.0 | 0.00 | 0.00 | 0.00 | 12 | 1011.0 |
| 20260903204559 | 93 | 167 | 5.0 | 15.0 | 0.00 | 0.00 | 0.00 | 11 | 1011.2 |
| 20260903204059 | 92 | 173 | 4.0 | 15.0 | 0.00 | 0.00 | 0.00 | 12 | 1011.2 |
| 20260903203059 | 93 | 203 | 4.0 | 13.0 | 0.00 | 0.00 | 0.00 | 12 | 1011.3 |
| 20260903202559 | 92 | 182 | 4.0 | 13.0 | 0.00 | 0.00 | 0.00 | 12 | 1011.5 |
| 20260903202059 | 92 | 185 | 4.0 | 13.0 | 0.00 | 0.00 | 0.00 | 12 | 1011.4 |
| 20260903201559 | 93 | 159 | 5.0 | 14.0 | 0.00 | 0.00 | 0.00 | 12 | 1011.7 |
| 20260903201059 | 92 | 136 | 6.0 | 17.0 | 0.00 | 0.00 | 0.00 | 12 | 1011.7 |
| 20260903200059 | 91 | 150 | 4.0 | 15.0 | 0.00 | 0.00 | 0.00 | 12 | 1011.7 |
| 20260903195059 | 91 | 182 | 6.0 | 17.0 | 0.00 | 0.00 | 0.00 | 12 | 1011.9 |
| 20260903194059 | 91 | 172 | 5.0 | 15.0 | 0.00 | 0.00 | 0.00 | 13 | 1012.0 |
| 20260903193059 | 90 | 118 | 8.0 | 16.0 | 0.00 | 0.00 | 0.00 | 12 | 1011.9 |
| 20260903192559 | 90 | 111 | 5.0 | 14.0 | 0.00 | 0.00 | 0.00 | 12 | 1012.1 |
| 20260903191559 | 89 | 114 | 5.0 | 13.0 | 0.00 | 0.00 | 0.00 | 12 | 1012.0 |
| 20260903191059 | 89 | 83 | 10.0 | 17.0 | 0.00 | 0.00 | 0.00 | 13 | 1012.2 |
| 20260903190559 | 89 | 175 | 5.0 | 17.0 | 0.00 | 0.00 | 0.00 | 13 | 1012.2 |
| 20260903190059 | 89 | 124 | 6.0 | 11.0 | 0.00 | 0.00 | 0.00 | 13 | 1012.2 |
| 20260903185558 | 88 | 127 | 7.0 | 14.0 | 0.00 | 0.00 | 0.00 | 13 | 1012.4 |
| 20260903184559 | 87 | 100 | 9.0 | 14.0 | 0.00 | 0.00 | 0.00 | 13 | 1012.4 |
| 20260903184059 | 88 | 90 | 8.0 | 14.0 | 0.00 | 0.00 | 0.00 | 14 | 1012.6 |
| 20260903183559 | 87 | 117 | 7.0 | 14.0 | 0.00 | 0.00 | 0.00 | 14 | 1012.7 |
| 20260903183058 | 87 | 97 | 7.0 | 14.0 | 0.00 | 0.00 | 0.00 | 15 | 1012.8 |
| 20260903182559 | 87 | 119 | 7.0 | 11.0 | 0.00 | 0.00 | 0.00 | 14 | 1012.8 |
| 20260903182058 | 87 | 97 | 6.0 | 16.0 | 0.00 | 0.00 | 0.00 | 15 | 1013.0 |
| 20260903181559 | 86 | 129 | 7.0 | 16.0 | 0.00 | 0.00 | 0.00 | 15 | 1013.1 |
| 20260903180558 | 86 | 159 | 3.0 | 13.0 | 0.00 | 0.00 | 0.00 | 15 | 1013.2 |
| 20260903180058 | 85 | 134 | 7.0 | 13.0 | 0.00 | 0.00 | 0.00 | 15 | 1013.0 |
| 20260903175559 | 85 | 149 | 2.0 | 10.0 | 0.00 | 0.00 | 0.00 | 15 | 1013.3 |
| 20260903175058 | 84 | 172 | 6.0 | 11.0 | 0.00 | 0.00 | 0.00 | 16 | 1013.3 |
| 20260903174558 | 84 | 97 | 2.0 | 11.0 | 0.00 | 0.00 | 0.00 | 16 | 1013.3 |
| 20260903174058 | 84 | 103 | 10.0 | 12.0 | 0.00 | 0.00 | 0.00 | 16 | 1013.3 |
| 20260903173559 | 83 | 98 | 2.0 | 12.0 | 0.00 | 0.00 | 0.00 | 17 | 1013.3 |
| 20260903172059 | 82 | 157 | 4.0 | 12.0 | 0.00 | 0.00 | 0.00 | 17 | 1013.1 |
| 20260903171558 | 82 | 103 | 7.0 | 10.0 | 0.00 | 0.00 | 0.00 | 18 | 1013.1 |
| 20260903170558 | 82 | 157 | 3.0 | 10.0 | 0.00 | 0.00 | 0.00 | 18 | 1013.2 |
| 20260903170058 | 82 | 110 | 9.0 | 9.0 | 0.00 | 0.00 | 0.00 | 18 | 1013.2 |
| 20260903164559 | 81 | 175 | 2.0 | 14.0 | 0.00 | 0.00 | 0.00 | 18 | 1013.1 |
| 20260903164058 | 80 | 116 | 10.0 | 13.0 | 0.00 | 0.00 | 0.00 | 18 | 1013.2 |
| 20260903163558 | 80 | 175 | 3.0 | 9.0 | 0.00 | 0.00 | 0.00 | 19 | 1013.1 |
| 20260903163058 | 80 | 123 | 7.0 | 9.0 | 0.00 | 0.00 | 0.00 | 19 | 1013.1 |
| 20260903162059 | 80 | 118 | 2.0 | 10.0 | 0.00 | 0.00 | 0.00 | 19 | 1013.1 |
| 20260903161059 | 79 | 134 | 4.0 | 9.0 | 0.00 | 0.00 | 0.00 | 20 | 1013.0 |
| 20260903160559 | 79 | 162 | 3.0 | 9.0 | 0.00 | 0.00 | 0.00 | 20 | 1013.0 |
| 20260903160058 | 79 | 187 | 5.0 | 6.0 | 0.00 | 0.00 | 0.00 | 20 | 1013.0 |
| 20260903154059 | 78 | 360 | 0.0 | 8.0 | 0.00 | 0.00 | 0.00 | 21 | 1012.9 |
| 20260903153559 | 78 | 360 | 2.0 | 8.0 | 0.00 | 0.00 | 0.00 | 21 | 1012.9 |
| 20260903153059 | 77 | 360 | 0.0 | 8.0 | 0.00 | 0.00 | 0.00 | 22 | 1012.9 |
| 20260903152559 | 77 | 128 | 3.0 | 8.0 | 0.00 | 0.00 | 0.00 | 21 | 1013.0 |
| 20260903152058 | 77 | 360 | 4.0 | 8.0 | 0.00 | 0.00 | 0.00 | 21 | 1013.0 |
| 20260903151559 | 77 | 360 | 4.0 | 8.0 | 0.00 | 0.00 | 0.00 | 21 | 1013.0 |
| 20260903150559 | 77 | 360 | 4.0 | 7.0 | 0.00 | 0.00 | 0.00 | 21 | 1013.0 |
| 20260903150058 | 77 | 360 | 4.0 | 7.0 | 0.00 | 0.00 | 0.00 | 21 | 1013.0 |
| 20260903145559 | 76 | 84 | 5.0 | 8.0 | 0.00 | 0.00 | 0.00 | 21 | 1013.0 |
| 20260903145058 | 76 | 80 | 3.0 | 8.0 | 0.00 | 0.00 | 0.00 | 22 | 1013.1 |
| 20260903144558 | 76 | 73 | 4.0 | 10.0 | 0.00 | 0.00 | 0.00 | 21 | 1013.0 |
| 20260903144059 | 75 | 108 | 2.0 | 10.0 | 0.00 | 0.00 | 0.00 | 22 | 1012.8 |
| 20260903143558 | 75 | 128 | 5.0 | 9.0 | 0.00 | 0.00 | 0.00 | 22 | 1012.8 |
| 20260903143059 | 75 | 360 | 4.0 | 9.0 | 0.00 | 0.00 | 0.00 | 22 | 1012.6 |
| 20260903142558 | 75 | 116 | 4.0 | 9.0 | 0.00 | 0.00 | 0.00 | 22 | 1012.7 |
| 20260903141558 | 74 | 84 | 2.0 | 9.0 | 0.00 | 0.00 | 0.00 | 22 | 1012.6 |
| 20260903141058 | 73 | 86 | 6.0 | 9.0 | 0.00 | 0.00 | 0.00 | 23 | 1012.5 |
| 20260903140559 | 73 | 65 | 7.0 | 9.0 | 0.00 | 0.00 | 0.00 | 23 | 1012.4 |
| 20260903140058 | 72 | 76 | 5.0 | 9.0 | 0.00 | 0.00 | 0.00 | 24 | 1012.3 |
| 20260903135559 | 72 | 76 | 4.0 | 8.0 | 0.00 | 0.00 | 0.00 | 24 | 1012.4 |
| 20260903135059 | 72 | 82 | 7.0 | 7.0 | 0.00 | 0.00 | 0.00 | 24 | 1012.2 |
| 20260903134558 | 71 | 70 | 3.0 | 7.0 | 0.00 | 0.00 | 0.00 | 24 | 1012.2 |
| 20260903134058 | 71 | 66 | 5.0 | 6.0 | 0.00 | 0.00 | 0.00 | 24 | 1012.1 |
| 20260903133559 | 71 | 86 | 5.0 | 8.0 | 0.00 | 0.00 | 0.00 | 24 | 1012.0 |
| 20260903132558 | 71 | 78 | 2.0 | 8.0 | 0.00 | 0.00 | 0.00 | 24 | 1011.8 |
| 20260903132058 | 71 | 56 | 3.0 | 9.0 | 0.00 | 0.00 | 0.00 | 24 | 1011.8 |
| 20260903131558 | 72 | 55 | 8.0 | 9.0 | 0.00 | 0.00 | 0.00 | 24 | 1011.7 |
| 20260903131058 | 72 | 87 | 0.0 | 5.0 | 0.00 | 0.00 | 0.00 | 23 | 1011.8 |
| 20260903130059 | 72 | 87 | 2.0 | 9.0 | 0.00 | 0.00 | 0.00 | 23 | 1011.7 |
| 20260903125558 | 72 | 355 | 6.0 | 10.0 | 0.00 | 0.00 | 0.00 | 23 | 1011.9 |
| 20260903125058 | 72 | 42 | 6.0 | 10.0 | 0.00 | 0.00 | 0.00 | 23 | 1011.8 |
| 20260903124558 | 71 | 52 | 8.0 | 10.0 | 0.00 | 0.00 | 0.00 | 23 | 1011.8 |
| 20260903124058 | 71 | 67 | 4.0 | 10.0 | 0.00 | 0.00 | 0.00 | 24 | 1011.8 |
| 20260903123558 | 71 | 64 | 7.0 | 8.0 | 0.00 | 0.00 | 0.00 | 24 | 1011.7 |
| 20260903123058 | 72 | 59 | 4.0 | 9.0 | 0.00 | 0.00 | 0.00 | 23 | 1011.8 |
| 20260903122559 | 72 | 51 | 4.0 | 9.0 | 0.00 | 0.00 | 0.00 | 23 | 1011.7 |
| 20260903122058 | 72 | 78 | 4.0 | 7.0 | 0.00 | 0.00 | 0.00 | 23 | 1011.7 |
| 20260903121058 | 73 | 46 | 3.0 | 14.0 | 0.00 | 0.00 | 0.00 | 22 | 1011.6 |
| 20260903120558 | 73 | 76 | 7.0 | 12.0 | 0.00 | 0.00 | 0.00 | 21 | 1011.6 |
| 20260903120058 | 73 | 81 | 2.0 | 10.0 | 0.00 | 0.00 | 0.00 | 21 | 1011.6 |
| 20260903115558 | 73 | 53 | 9.0 | 12.0 | 0.00 | 0.00 | 0.00 | 21 | 1011.9 |
| 20260903114058 | 73 | 69 | 3.0 | 10.0 | 0.00 | 0.00 | 0.00 | 21 | 1011.9 |
| 20260903113558 | 73 | 147 | 4.0 | 11.0 | 0.00 | 0.00 | 0.00 | 21 | 1011.9 |
| 20260903113058 | 74 | 63 | 9.0 | 11.0 | 0.00 | 0.00 | 0.00 | 21 | 1011.9 |
| 20260903112558 | 74 | 84 | 6.0 | 10.0 | 0.00 | 0.00 | 0.00 | 20 | 1011.9 |
| 20260903112058 | 74 | 63 | 4.0 | 8.0 | 0.00 | 0.00 | 0.00 | 20 | 1011.8 |
| 20260903111558 | 75 | 70 | 4.0 | 9.0 | 0.00 | 0.00 | 0.00 | 20 | 1011.8 |
| 20260903111058 | 75 | 69 | 4.0 | 9.0 | 0.00 | 0.00 | 0.00 | 20 | 1011.8 |
| 20260903110559 | 75 | 76 | 4.0 | 9.0 | 0.00 | 0.00 | 0.00 | 19 | 1011.8 |
| 20260903110058 | 75 | 109 | 7.0 | 7.0 | 0.00 | 0.00 | 0.00 | 19 | 1011.8 |
| 20260903105058 | 76 | 115 | 2.0 | 8.0 | 0.00 | 0.00 | 0.00 | 20 | 1012.1 |
| 20260903104558 | 76 | 100 | 2.0 | 8.0 | 0.00 | 0.00 | 0.00 | 20 | 1011.9 |
| 20260903103558 | 77 | 126 | 5.0 | 15.0 | 0.00 | 0.00 | 0.00 | 18 | 1011.9 |
| 20260903103058 | 77 | 171 | 2.0 | 15.0 | 0.00 | 0.00 | 0.00 | 18 | 1012.0 |
| 20260903102558 | 76 | 175 | 9.0 | 13.0 | 0.00 | 0.00 | 0.00 | 18 | 1012.0 |
| 20260903102058 | 75 | 181 | 4.0 | 11.0 | 0.00 | 0.00 | 0.00 | 19 | 1011.9 |
| 20260903101558 | 75 | 121 | 2.0 | 10.0 | 0.00 | 0.00 | 0.00 | 20 | 1011.9 |
| 20260903101058 | 75 | 87 | 6.0 | 10.0 | 0.00 | 0.00 | 0.00 | 21 | 1011.9 |
| 20260903100558 | 75 | 72 | 5.0 | 9.0 | 0.00 | 0.00 | 0.00 | 21 | 1012.0 |
| 20260903100058 | 76 | 92 | 2.0 | 7.0 | 0.00 | 0.00 | 0.00 | 20 | 1012.4 |
| 20260903095058 | 77 | 147 | 4.0 | 4.0 | 0.00 | 0.00 | 0.00 | 19 | 1012.3 |
| 20260903094558 | 77 | 147 | 2.0 | 4.0 | 0.00 | 0.00 | 0.00 | 19 | 1012.3 |
| 20260903094058 | 77 | 147 | 2.0 | 8.0 | 0.00 | 0.00 | 0.00 | 18 | 1012.4 |
| 20260903093558 | 77 | 147 | 3.0 | 13.0 | 0.00 | 0.00 | 0.00 | 18 | 1012.3 |
| 20260903093058 | 77 | 190 | 2.0 | 13.0 | 0.00 | 0.00 | 0.00 | 17 | 1012.3 |
| 20260903092558 | 77 | 183 | 4.0 | 12.0 | 0.00 | 0.00 | 0.00 | 17 | 1012.3 |
| 20260903092058 | 77 | 182 | 6.0 | 11.0 | 0.00 | 0.00 | 0.00 | 17 | 1012.3 |
| 20260903091558 | 77 | 178 | 1.0 | 10.0 | 0.00 | 0.00 | 0.00 | 17 | 1012.3 |
| 20260903091058 | 77 | 156 | 1.0 | 4.0 | 0.00 | 0.00 | 0.00 | 17 | 1012.3 |
| 20260903090558 | 78 | 155 | 2.0 | 5.0 | 0.00 | 0.00 | 0.00 | 17 | 1012.6 |
| 20260903090058 | 78 | 155 | 3.0 | 6.0 | 0.00 | 0.00 | 0.00 | 17 | 1012.8 |
| 20260903085558 | 78 | 175 | 1.0 | 6.0 | 0.00 | 0.00 | 0.00 | 17 | 1012.9 |
| 20260903085058 | 78 | 173 | 4.0 | 8.0 | 0.00 | 0.00 | 0.00 | 16 | 1012.8 |
| 20260903084058 | 78 | 152 | 1.0 | 5.0 | 0.00 | 0.00 | 0.00 | 16 | 1012.9 |
| 20260903083558 | 79 | 160 | 0.0 | 4.0 | 0.00 | 0.00 | 0.00 | 16 | 1012.9 |
| 20260903083058 | 79 | 160 | 0.0 | 5.0 | 0.00 | 0.00 | 0.00 | 15 | 1013.0 |
| 20260903082558 | 79 | 169 | 3.0 | 7.0 | 0.00 | 0.00 | 0.00 | 15 | 1012.9 |
| 20260903082058 | 79 | 195 | 1.0 | 7.0 | 0.00 | 0.00 | 0.00 | 15 | 1012.8 |
| 20260903081558 | 79 | 215 | 7.0 | 7.0 | 0.00 | 0.00 | 0.00 | 15 | 1012.7 |
| 20260903080558 | 79 | 181 | 4.0 | 6.0 | 0.00 | 0.00 | 0.00 | 14 | 1012.8 |
| 20260903080058 | 80 | 173 | 1.0 | 6.0 | 0.00 | 0.00 | 0.00 | 13 | 1013.1 |
| 20260903075058 | 80 | 168 | 2.0 | 7.0 | 0.00 | 0.00 | 0.00 | 13 | 1012.7 |
| 20260903074558 | 80 | 171 | 4.0 | 8.0 | 0.00 | 0.00 | 0.00 | 13 | 1012.7 |
| 20260903074058 | 80 | 159 | 5.0 | 9.0 | 0.00 | 0.00 | 0.00 | 12 | 1012.8 |
| 20260903073558 | 80 | 164 | 4.0 | 10.0 | 0.00 | 0.00 | 0.00 | 12 | 1012.7 |
| 20260903072558 | 80 | 192 | 7.0 | 9.0 | 0.00 | 0.00 | 0.00 | 12 | 1012.6 |
| 20260903071058 | 80 | 178 | 1.0 | 10.0 | 0.00 | 0.00 | 0.00 | 12 | 1012.6 |
| 20260903070558 | 80 | 185 | 9.0 | 9.0 | 0.00 | 0.00 | 0.00 | 12 | 1012.6 |
| 20260903070058 | 80 | 157 | 3.0 | 9.0 | 0.00 | 0.00 | 0.00 | 12 | 1012.7 |
| 20260903065558 | 80 | 157 | 3.0 | 9.0 | 0.00 | 0.00 | 0.00 | 12 | 1012.7 |
| 20260903065057 | 79 | 167 | 3.0 | 9.0 | 0.00 | 0.00 | 0.00 | 11 | 1012.6 |
| 20260903064558 | 79 | 182 | 4.0 | 12.0 | 0.00 | 0.00 | 0.00 | 11 | 1012.5 |
| 20260903064057 | 79 | 193 | 5.0 | 12.0 | 0.00 | 0.00 | 0.00 | 11 | 1012.4 |
| 20260903062558 | 80 | 150 | 0.0 | 3.0 | 0.00 | 0.00 | 0.00 | 11 | 1012.5 |
| 20260903062057 | 81 | 150 | 1.0 | 3.0 | 0.00 | 0.00 | 0.00 | 11 | 1012.4 |
| 20260903061558 | 81 | 150 | 0.0 | 3.0 | 0.00 | 0.00 | 0.00 | 11 | 1012.4 |
| 20260903060557 | 82 | 155 | 3.0 | 4.0 | 0.00 | 0.00 | 0.00 | 10 | 1012.7 |
| 20260903060057 | 83 | 183 | 0.0 | 3.0 | 0.00 | 0.00 | 0.00 | 9 | 1012.6 |
| 20260903055557 | 83 | 184 | 2.0 | 4.0 | 0.00 | 0.00 | 0.00 | 9 | 1012.4 |
| 20260903055057 | 83 | 186 | 2.0 | 4.0 | 0.00 | 0.00 | 0.00 | 9 | 1012.3 |
| 20260903054058 | 83 | 186 | 3.0 | 12.0 | 0.00 | 0.00 | 0.00 | 8 | 1012.3 |
| 20260903053558 | 83 | 186 | 3.0 | 13.0 | 0.00 | 0.00 | 0.00 | 8 | 1012.0 |
| 20260903052558 | 83 | 171 | 8.0 | 12.0 | 0.00 | 0.00 | 0.00 | 9 | 1012.1 |
| 20260903052058 | 83 | 360 | 4.0 | 9.0 | 0.00 | 0.00 | 0.00 | 9 | 1012.1 |
| 20260903051557 | 83 | 360 | 4.0 | 6.0 | 0.00 | 0.00 | 0.00 | 9 | 1012.0 |
| 20260903051057 | 84 | 360 | 3.0 | 8.0 | 0.00 | 0.00 | 0.00 | 9 | 1012.1 |
| 20260903050558 | 84 | 151 | 2.0 | 8.0 | 0.00 | 0.00 | 0.00 | 9 | 1012.1 |
| 20260903050058 | 84 | 159 | 3.0 | 6.0 | 0.00 | 0.00 | 0.00 | 9 | 1012.1 |
| 20260903045557 | 84 | 165 | 4.0 | 6.0 | 0.00 | 0.00 | 0.00 | 8 | 1012.1 |